STARLINK-32655, 62202

Orbit data source: Space-Track

STARLINK-32655, 62202 is a payload satellite owned by SpaceX/Seattle (US) in LEO that was launched on Wed, 04 Dec 2024 UTC via an FALCON 9 launch vehicle from the Air Force Eastern Test Range (AFETR). Payload-class satellites include a variety of spacecraft equipped with specific instruments for various scientific and technological missions. These include communications satellites like Starlink; space stations such as the ISS; scientific satellites like the Hubble; Earth observation satellites from companies like Planet Labs, Umbra, and HawkEye 360; GPS; miniature CubeSats for education and research; and military/defense satellites.

Loading next visibility...
Identifier
62202, 2024-229L
Orbit
LEO
Last TLE update
1 day ago
Origin
Manufacturer
SpaceX/Seattle
Mission
Operational Commercial Communications
Bus & Motor
STARLINK V2M, Unknown motor
Mass
730 kg wet, ~700 kg dry
Launch date (UTC)
2024-12-04 (7 months ago)
Launch vehicle
FALCON 9
Launch site
Air Force Eastern Test Range (AFETR)
Object type
Payload
Rocket body
Debris
Shape & HBR
Box + 2 Pan, 29 m
Radar Cross Section
33.884 m², Large (>1 m²)

Expand to show TLE details & history

TLE from 1 day ago
0 STARLINK-32655
1 62202U 24229L   25189.04726713  .00017019  00000-0  62640-3 0  9995
2 62202  42.9983 212.5662 0000864 285.2724  74.8032 15.27588170 33140
Epoch: 2025-07-08T01:08Z
TLE epoch observation values (Epoch: 2025-07-08T01:08:03.88Z)
Latitude
-0°
Longitude
-90.69783°
Altitude
482.645 km
Speed
7.626 km/s
True Right ascension
14h 10m 15s
True Declination
0° 00' 00"
Sunlit
Object was in daylight at epoch
Visualization orbit readout
Latitude
-40.37699°
Longitude
147.1105°
Altitude
494.656 km
Speed
7.618 km/s
Apparent Right ascension
07h 04m 36s
Apparent Declination
-41° 08' 21"
Sunlit
Object is in daylight
Visualization observer readout
Local Sidereal Time
20:12:16
Azimuth
100.914° ESE
Elevation
-77.104°
Doppler factor
1
Orbital elements
Apogee altitude
485.563 km
Perigee altitude
484.377 km
Semi-major axis
6,863.107 km
Eccentricity
0.00009
Inclination
42.9983°
RAAN
212.5662°
Arg. of periapsis
285.2724°
True anomaly
Unknown
Mean anomaly
74.8032°
Eccentric anomaly
Unknown
Mean motion
3.81735 °/min
Orbital period
94.31 mins
BSTAR
0.0006264
Loading maneuver chart data...
Loading SW <> Apogee altitude chart data...
Loading historical data...
Loading historical data...
Loading historical data...
Loading historical data...
Loading historical data...
Loading historical data...
Loading historical data...

STARLINK-32655 Visibility forecast

Observer location: undefined°, undefined°

Span
Click to sort rows by Start time (UTC) header in descending order
Start Az.
Max El. time (UTC)
Max El. Az.
Max El.
End time (UTC)
End Az.
7 mins2025-07-09 08:55:40.583Z289.378° WNW2025-07-09 08:58:40.583Z319.189° NNW42.637°2025-07-09 09:02:40.583Z102.26° ESE
5 mins2025-07-09 10:35:40.583Z261.937° W2025-07-09 10:37:40.583Z216.178° SW26.046°2025-07-09 10:40:40.583Z153.745° SSE
4 mins2025-07-10 03:32:40.583Z178.609° S2025-07-10 03:34:40.583Z137.845° SSE18.465°2025-07-10 03:36:40.583Z102.05° ESE
6 mins2025-07-10 05:10:40.583Z245.655° WSW2025-07-10 05:12:40.583Z222.364° SW43.74°2025-07-10 05:16:40.583Z72.775° E
6 mins2025-07-10 06:49:40.583Z286.412° WNW2025-07-10 06:51:40.583Z332.27° NNW37.034°2025-07-10 06:55:40.583Z75.005° E
|